{"data":{"norad_id":64614,"intl_designator":"2025-137W","name":"STARLINK-34440","alt_names":[],"object_type":"PAYLOAD","status":"ACTIVE","operator":null,"country":"US","launch_date":"2025-06-25","launch_site_code":"AFETR","launch_vehicle":null,"mission":null,"orbit_class":"UNKNOWN","rcs_meters":null,"size_class":null,"mass_kg":null,"dimensions":null,"purposes":["comms"],"wikipedia_slug":null,"has_3d_model":false,"image_url":null,"decayed_at":null,"tle_current":{"epoch":"2026-05-24T20:18:08.101440Z","epoch_age_seconds":84391,"freshness":"FRESH","line1":"1 64614U 25137W   26144.84592710  .00016998  00000+0  58449-3 0  9997","line2":"2 64614  53.1604 341.5706 0000970  86.0869 274.0243 15.30212262 52396","mean_motion":15.30212262,"eccentricity":9.7e-5,"inclination_deg":53.1604,"raan_deg":341.5706,"arg_perigee_deg":86.0869,"mean_anomaly_deg":274.0243,"bstar":0.00058449,"rev_number":5239,"period_min":94.104591615147,"perigee_km":474.51368594267,"apogee_km":475.84322914143,"semimajor_km":6853.315457542,"source":"CELESTRAK","updated_at":"2026-05-25T13:38:20.497868Z"}}}